Regional Weather Roundup
Issued by NWS Grand Forks, ND

Home | Current Version | Previous Version | Text Only | Print | Product List | Glossary Off
Versions: 1 2 3 4 5 6 7 8 9 10 11 12 13 14 15 16 17 18 19 20 21 22 23 24 25 26 27 28 29 30 31 32 33 34 35 36 37 38 39 40 41 42 43 44 45 46 47 48 49 50

000
ASUS43 KFGF 011831
RWRFGF
PRAIRIE TO PINES  WEATHER ROUNDUP
NATIONAL WEATHER SERVICE EASTERN NORTH DAKOTA/GRAND FORKS ND
100 PM CDT MON SEP 01 2014

 **SATELLITE DATA USED TO AUGMENT SKY COVER AT AUTOMATED STATIONS**
 *****  WEATHER ACROSS EASTERN NORTH DAKOTA  *****

CITY           SKY/WX    TMP DP  RH WIND       PRES   REMARKS
GRAND FORKS    MOSUNNY   74  55  51 W6        29.70F
6HR MIN TEMP:  51; 6HR MAX TEMP:  74;

GRAND FRKS AFB DRIZZLE   75  55  50 W7        29.71F
GRAND FRKS NWS   N/A     73 N/A N/A MISG        N/A
DEVILS LAKE    PTSUNNY   66  52  59 W16       29.74S
6HR MIN TEMP:  54; 6HR MAX TEMP:  66;

FARGO          MOSUNNY   73  54  51 W9        29.74S
WAHPETON ARPT  PTCLDY    72  54  53 NW6       29.76F
$$

 ***** WEATHER ACROSS CENTRAL AND WESTERN NORTH DAKOTA  *****

CITY           SKY/WX    TMP DP  RH WIND       PRES   REMARKS
BISMARCK       SUNNY     70  52  52 NW14G22   29.82S
6HR MIN TEMP:  50; 6HR MAX TEMP:  71;

MINOT          SUNNY     69  48  47 W12       29.79S
6HR MIN TEMP:  51; 6HR MAX TEMP:  69;

JAMESTOWN      SUNNY     70  57  63 W10       29.77S
6HR MIN TEMP:  54; 6HR MAX TEMP:  70;

MINOT AFB      MOSUNNY   70  50  49 NW16      29.78S
GARRISON         N/A     69  50  50 NW14      29.82S
WILLISTON      MOSUNNY   70  44  39 NW12      29.84F
6HR MIN TEMP:  48; 6HR MAX TEMP:  71;

DICKINSON      MOSUNNY   67  48  50 NW8G18    29.86S
6HR MIN TEMP:  49; 6HR MAX TEMP:  68;

HETTINGER      MOSUNNY   68  47  46 NW13      29.89S
6HR MIN TEMP:  44; 6HR MAX TEMP:  69;

$$

 *****  OTHER AIRPORT OBSERVATIONS IN OUR AREA  *****

CITY           SKY/WX    TMP DP  RH WIND       PRES   REMARKS
WALHALLA       FAIR      73  52  46 W9        29.69S
GRAFTON AIRPOR FAIR      72  52  49 NW6       29.69F
VALLEY CITY AR FAIR      72  57  60 W14G20    29.76S
CANDO          FAIR      64  50  59 NW14      29.76S
CAVALIER APRT  FAIR      73  50  43 W9        29.69S
GWINNER        CLEAR     75  57  53 SW12      29.78S
SHEYENNE NWR     N/A     74  54  49 W7        29.95S
ROLLA          MOCLDY    63  52  67 NW7       29.77S
 ***** THE ABOVE OBSERVATIONS ARE NON NWS ARE NOT QUALITY
       CONTROLLED AND MAY MIS-REPORT RAIN FOR SNOW...
$$

  *****  WEATHER ACROSS NORTHERN MINNESOTA  *****

CITY           SKY/WX    TMP DP  RH WIND       PRES   REMARKS
FLAG ISLAND    SUNNY     64  54  68 NW8       29.65S
WARROAD        MOSUNNY   70  55  60 W8        29.68S
ROSEAU         SUNNY     72  55  56 NW9       29.69S
HALLOCK        SUNNY     72  55  56 SW5       29.68F
THF RVR FALLS  SUNNY     70  55  60 W7        29.72S
6HR MIN TEMP:  55; 6HR MAX TEMP:  68;

BAUDETTE       MOSUNNY   67  53  61 NW12      29.67R
6HR MIN TEMP:  58; 6HR MAX TEMP:  67;

WASKISH        MOSUNNY   70  55  60 W3        29.69S
CROOKSTON      SUNNY     72  54  53 W3        29.72F
$$
  *****  WEATHER ACROSS CENTRAL AND WEST MINNESOTA  *****

CITY           SKY/WX    TMP DP  RH WIND       PRES   REMARKS
FOSSTON        SUNNY     70  52  52 W7        29.74S
BEMIDJI        MOSUNNY   69  52  55 W12G20    29.72S
PARK RAPIDS    SUNNY     70  48  45 NW15      29.73S
6HR MIN TEMP:  56; 6HR MAX TEMP:  70;

ELBOW LAKE     FAIR      72  57  58 NW5       29.77S
6HR MIN TEMP:  55; 6HR MAX TEMP:  71;

WADENA         SUNNY     70  54  56 W9        29.75S
DETROIT LAKES  SUNNY     70  54  56 W8G16     29.77F
MOORHEAD       MOSUNNY   72  59  64 S3        29.75S
FERGUS FALLS   MOSUNNY   72  54  53 W9        29.76F
MORRIS MN      SUNNY     73  57  56 NW8       29.78R
STAPLES        MOSUNNY   72  50  46 W15       29.74R
$$
  *****  WEATHER ELSEWHERE ACROSS MINNESOTA  *****

CITY           SKY/WX    TMP DP  RH WIND       PRES   REMARKS
DULUTH         CLOUDY    68  56  65 W12G22    29.66S
6HR MIN TEMP:  61; 6HR MAX TEMP:  68;

INTRNTL FALLS  PTSUNNY   65  59  81 W13       29.64S
6HR MIN TEMP:  58; 6HR MAX TEMP:  65; 6HR PCP:  0.03;

ELY            PTSUNNY   63  57  82 W7        29.63S
CLOQUET        PTSUNNY   66  55  68 W7        29.68S
WHEATON        SUNNY     72  57  60 W6        29.79S
BRAINERD       SUNNY     69  51  52 NW12      29.72S
6HR MIN TEMP:  60; 6HR MAX TEMP:  69;

HIBBING        PTSUNNY   68  56  65 W8        29.67R
6HR MIN TEMP:  60; 6HR MAX TEMP:  68;

ALEXANDRIA     MOSUNNY   72  57  59 NW14      29.78S
6HR MIN TEMP:  61; 6HR MAX TEMP:  72;

SAINT CLOUD    SUNNY     74  55  51 NW10      29.74R
6HR MIN TEMP:  65; 6HR MAX TEMP:  75;

MINNEAPOLIS    MOSUNNY   74  58  57 W9G18     29.73S
6HR MIN TEMP:  66; 6HR MAX TEMP:  75;

$$

  *****  WEATHER ACROSS SOUTH DAKOTA  *****

CITY           SKY/WX    TMP DP  RH WIND       PRES   REMARKS
SIOUX FALLS    PTSUNNY   74  61  63 NW15      29.84F
6HR MIN TEMP:  60; 6HR MAX TEMP:  74;

BROOKINGS      NOT AVBL
WATERTOWN      MOSUNNY   72  58  61 W12       29.82R
6HR MIN TEMP:  58; 6HR MAX TEMP:  72;

HURON          SUNNY     74  54  49 W8        29.84S
6HR MIN TEMP:  54; 6HR MAX TEMP:  74;

SISSETON         N/A     74  55  51 NW6       29.77S
ABERDEEN       SUNNY     73  56  54 W7        29.80R
6HR MIN TEMP:  54; 6HR MAX TEMP:  73;

MITCHELL       SUNNY     73  58  59 NW10      29.86S
PIERRE         MOSUNNY   73  56  54 SW8       29.84S
6HR MIN TEMP:  52; 6HR MAX TEMP:  74;

MOBRIDGE       SUNNY     72  55  55 NW7       29.81R
RAPID CITY     PTSUNNY   72  47  40 N10       29.94S
6HR MIN TEMP:  49; 6HR MAX TEMP:  72;

$$

  *****  SOME WEATHER IN NEARBY STATES *****

CITY           SKY/WX    TMP DP  RH WIND       PRES   REMARKS
GLASGOW MT     SUNNY     66  48  52 W7        29.88S
6HR MIN TEMP:  48; 6HR MAX TEMP:  66;

GREAT FALLS MT MOSUNNY   66  37  34 SW9G24    29.96F
6HR MIN TEMP:  48; 6HR MAX TEMP:  66;

CHEYENNE WY    MOSUNNY   67  30  25 W10G20    30.09F
6HR MIN TEMP:  45; 6HR MAX TEMP:  68;

SCOTTSBLUFF NE SUNNY     73  50  44 SE9       29.98F
6HR MIN TEMP:  48; 6HR MAX TEMP:  73;

OMAHA NE       MOSUNNY   76  62  62 NW7       29.88S
6HR MIN TEMP:  67; 6HR MAX TEMP:  76;

DES MOINES IA  MOSUNNY   80  65  59 W18       29.79S
6HR MIN TEMP:  69; 6HR MAX TEMP:  81;

DAVENPORT IA   MOSUNNY   79  65  62 SW20G25   29.79S
6HR MIN TEMP:  65; 6HR MAX TEMP:  79; 6HR PCP: TRACE;

CHICAGO IL     PTSUNNY   79  65  62 SW14G22   29.77S
6HR MIN TEMP:  74; 6HR MAX TEMP:  80; 6HR PCP:  0.09;

EAU CLAIRE WI  MOSUNNY   75  62  64 W9        29.68S
6HR MIN TEMP:  64; 6HR MAX TEMP:  76; 6HR PCP:  0.83;

LA CROSSE WI   PTSUNNY   78  65  63 W8        29.69F
6HR MIN TEMP:  66; 6HR MAX TEMP:  78; 6HR PCP:  0.31;

$$

  *****  SOME NATIONAL WEATHER *****

CITY           SKY/WX    TMP DP  RH WIND       PRES   REMARKS
LA GUARDIA NY  PTSUNNY   86  69  56 SW12      29.96F HX  90
RALEIGH NC     PTSUNNY   92  72  51 VRB5      30.08F HX  99
6HR MIN TEMP:  74; 6HR MAX TEMP:  92;

ATLANTA GA     PTSUNNY   83  74  74 NW6       30.14S
6HR MIN TEMP:  74; 6HR MAX TEMP:  89; 6HR PCP:  0.11;

NEW ORLEANS LA PTSUNNY   90  74  59 S13       30.04F HX  99
6HR MIN TEMP:  79; 6HR MAX TEMP:  90; 6HR PCP:  0.01;

OKLAHOMA CITY  MOSUNNY   92  70  48 S18G28    29.85F HX  97
6HR MIN TEMP:  74; 6HR MAX TEMP:  92;

ALBUQUERQUE NM MOSUNNY   83  39  21 CALM      30.12F
6HR MIN TEMP:  63; 6HR MAX TEMP:  83;

SALT LAKE CITY MOSUNNY   73  42  32 VRB6      30.10R
6HR MIN TEMP:  55; 6HR MAX TEMP:  73;

LOS ANGELES CA MOSUNNY   77  64  64 W8        29.85R
6HR MIN TEMP:  70; 6HR MAX TEMP:  78;

BOISE ID       SUNNY     66  42  41 NW8       30.11S



USA.gov is the U.S. government's official web portal to all federal, state and local government web resources and services.